Terminal Aerodrome Forecast
Issued by NWS

Home | Current Version | Previous Version | Text Only | Print | Product List | Glossary Off
Versions: 1 2 3 4 5 6 7 8 9 10 11 12 13 14 15 16 17 18 19 20 21 22 23 24 25 26 27 28 29 30 31 32 33 34 35 36

000
FTUS43 KLOT 301900 AAA
TAFORD
TAF AMD
KORD 301947Z 3020/3124 29005KT P6SM FEW160
     FM302000 24006KT P6SM FEW150
     FM311500 22010KT P6SM FEW150 BKN250
     FM311700 25009KT P6SM BKN040 BKN150
     FM312300 26005KT P6SM OVC025=

USA.gov is the U.S. government's official web portal to all federal, state and local government web resources and services.